AKST,Max TemperatureF,Mean TemperatureF,Min TemperatureF,Max Dew PointF,MeanDew PointF,Min DewpointF,Max Humidity, Mean Humidity, Min Humidity, Max Sea Level PressureIn, Mean Sea Level PressureIn, Min Sea Level PressureIn, Max VisibilityMiles, Mean VisibilityMiles, Min VisibilityMiles, Max Wind SpeedMPH, Mean Wind SpeedMPH, Max Gust SpeedMPH,PrecipitationIn, CloudCover, Events, WindDirDegrees
2013-11-1,44,40,37,39,37,36,93,85,76,30.11,30.07,30.00,10,9,0,7,2,,0.02,7,Fog-Rain,223
2013-11-2,42,38,33,36,34,30,93,88,70,30.09,30.06,30.04,10,10,0,6,3,,0.00,7,,227
2013-11-3,39,34,30,32,29,27,93,85,70,30.09,30.05,29.96,10,9,0,6,2,,0.00,3,,205
2013-11-4,44,40,35,36,30,18,93,72,34,29.91,29.76,29.71,10,8,4,12,4,25,0.09,7,Rain-Snow,92
2013-11-5,42,40,37,37,36,36,93,87,76,29.83,29.76,29.72,10,9,5,8,1,,0.21,8,Rain,353
2013-11-6,44,42,39,39,37,36,93,83,71,29.99,29.94,29.84,10,10,7,6,2,,0.17,7,Rain,130
2013-11-7,42,38,33,37,36,32,93,88,76,29.94,29.81,29.76,10,10,1,7,2,,0.04,6,,165
2013-11-8,39,37,35,37,35,28,100,89,75,30.00,29.85,29.78,10,10,10,7,2,,0.01,8,Rain,171
2013-11-9,39,32,26,30,28,25,93,83,65,30.33,30.20,30.01,10,10,10,7,4,,0.00,4,,194
2013-11-10,33,28,24,28,25,21,93,86,70,30.35,30.31,30.21,10,10,0,5,1,,0.00,1,,204
2013-11-11,35,30,24,36,28,21,100,88,70,30.21,29.97,29.79,10,10,3,7,1,,0.07,3,Rain,227
2013-11-12,39,36,33,37,35,30,100,92,87,29.96,29.83,29.75,10,10,7,6,1,,0.13,8,Fog-Rain,216
2013-11-13,39,37,35,37,37,34,93,93,87,30.24,30.14,29.97,10,4,0,5,0,,0.03,8,Rain,250
2013-11-14,41,38,35,37,36,32,100,92,87,30.25,29.96,29.52,10,5,1,6,3,,0.24,8,Rain,352
2013-11-15,42,34,26,36,26,16,93,68,36,29.72,29.58,29.41,10,9,3,13,4,21,0.02,3,,250
2013-11-16,32,28,24,25,21,12,93,78,51,29.71,29.62,29.58,10,10,10,7,2,,0.00,4,,200
2013-11-17,28,24,21,18,10,5,80,53,40,29.83,29.66,29.54,10,10,8,9,4,,0.00,5,,272
2013-11-18,23,19,15,14,9,3,86,66,43,29.96,29.92,29.84,10,10,5,5,1,,0.00,6,,171
2013-11-19,19,16,12,16,7,-4,86,67,38,30.01,29.98,29.96,10,6,2,9,2,,0.00,7,Snow,241
2013-11-20,28,24,19,25,21,16,93,88,80,30.11,30.06,29.96,10,5,1,6,1,,0.03,8,Snow,228
2013-11-21,33,30,28,32,29,27,93,90,87,30.29,30.13,30.01,10,2,1,5,1,,0.68,8,Rain-Snow,242
2013-11-22,42,38,33,37,35,30,100,85,76,30.31,30.21,29.94,10,7,2,14,4,29,0.81,8,Rain,121
2013-11-23,39,34,28,37,33,25,93,86,75,30.25,30.07,29.92,10,8,3,8,4,16,0.70,5,,236
2013-11-24,33,30,26,30,28,23,93,88,81,30.25,30.19,30.11,10,10,7,7,2,,0.01,5,,202
2013-11-25,48,40,33,37,34,27,93,79,43,30.12,29.98,29.88,10,8,4,15,4,22,0.17,8,Rain,183
2013-11-26,41,38,35,39,36,34,93,92,87,30.03,29.98,29.93,10,9,3,6,3,,0.04,8,,248
2013-11-27,46,42,37,43,38,34,93,84,76,29.93,29.70,29.52,10,9,5,13,3,24,0.91,8,Rain,134
2013-11-28,44,40,35,39,35,34,93,84,70,30.00,29.90,29.64,10,10,7,12,6,18,0.15,7,Rain,180
2013-11-29,39,36,33,37,35,30,93,90,81,29.96,29.83,29.75,10,8,4,10,2,,0.22,8,Rain,231
2013-11-30,33,32,28,34,30,23,100,86,75,30.00,29.85,29.68,10,8,2,14,2,23,0.00,8,Rain-Snow,263